Location: Cutler
(25.6150°N, 80.3110°W)
Time: 19:10:35
(UTC-04:00)

Vanguard 1 - Pass Details

Date: 28 January 2018
Orbit: 650 x 3833 km, 34.3° (Epoch: 25 May)

Event Time Altitude Azimuth Distance (km) Brightness Sun altitude
Rises 22:25:17 0° 274° (W) 3,004 - -59.2°
Reaches altitude 10° 22:27:26 10° 282° (WNW) 2,190 - -59.6°
Maximum altitude 22:32:04 42° 354° (N) 1,246 - -60.7°
Drops below altitude 10° 22:39:05 10° 64° (ENE) 3,312 - -62.2°
Sets 22:43:07 0° 71° (ENE) 4,782 - -63.1°
